STARLINK-31642, 59726

Orbit data source: Space-Track

STARLINK-31642, 59726 is a payload satellite owned by SpaceX/Seattle (US) in LEO that was launched on Fri, 10 May 2024 UTC via an FALCON 9 launch vehicle from the Air Force Western Test Range (AFWTR). Payload-class satellites include a variety of spacecraft equipped with specific instruments for various scientific and technological missions. These include communications satellites like Starlink; space stations such as the ISS; scientific satellites like the Hubble; Earth observation satellites from companies like Planet Labs, Umbra, and HawkEye 360; GPS; miniature CubeSats for education and research; and military/defense satellites.

Loading next visibility...
Identifier
59726, 2024-088U
Orbit
LEO
Country
Flag of USUS
Related business
Manufacturer
SpaceX/Seattle
Mission
Operational Commercial Communications
Bus & Motor
STARLINK V2M, Unknown motor
Mass
730 kg wet, ~700 kg dry
Launch date (UTC)
2024-05-10 (2 years ago)
Launch vehicle
FALCON 9
Launch site
Air Force Western Test Range (AFWTR)
Object type
Payload
Rocket body
Debris
Shape & HBR
Box + 2 Pan, 17.7 m
Radar Cross Section
33.884 m², Large (>1 m²)

Expand to show TLE details & history
Last TLE update: 3 days ago

TLE from 3 days ago
0 STARLINK-31642
1 59726U 24088U   26170.88709732 -.00001697  00000-0 -42930-4 0  9998
2 59726  53.1605  24.8908 0001219  89.9514 270.1627 15.31695440119331
Epoch: 2026-06-19T21:17Z
TLE epoch observation values (Epoch: 2026-06-19T21:17:25.208Z)
Latitude
-0.00003°
Longitude
157.42612°
Altitude
471.652 km
Speed
7.631 km/s
True Right ascension
01h 39m 33s
True Declination
0° 00' 00"
Sunlit
Object was in daylight at epoch
Visualization orbit readout
Latitude
Unknown
Longitude
Unknown
Altitude
Unknown
Speed
Unknown
Apparent Right ascension
Unknown
Apparent Declination
Unknown
Sunlit
N/A
Visualization observer readout
Local Sidereal Time
21:54:26
Azimuth
Unknown
Elevation
Unknown
Doppler factor
Unknown
Orbital elements
Apogee altitude
471.845 km
Perigee altitude
470.175 km
Semi-major axis
6,849.147 km
Eccentricity
0.00012
Inclination
53.1605°
RAAN
24.8908°
Arg. of periapsis
89.9514°
True anomaly
270.14873°
Mean anomaly
270.1627°
Eccentric anomaly
270.15572°
Mean motion
3.82903 °/min
Orbital period
94.02 mins
BSTAR
-0.00004293
Loading maneuver chart data...
Computing Atmospheric mass density...
Loading historical data...
Loading historical data...
Loading historical data...
Loading historical data...
Loading historical data...
Loading historical data...
Loading historical data...

Documentation

Showing up to 5 results
|